When you browse on this site, cookies collect data to enhance your experience and personalize the content and advertising you see.
Visit our Privacy Policy to learn more. By continuing to use the site, you agree to this use of cookies and data.
  • In France
  • List of Countries
  • For 7 days
  • Water Temperature
  • Weather Map
  • Weather Widgets
  • user-avatar
    Login

    Hourly Weather Emona

    Today, 21 September, Saturday

    Time Temperature Precipitation Wind Pressure Humidity
    00:00 +13°C° 0 mm 2 mps 766 mmHg 56%
    01:00 +12°C° 0 mm 2 mps 767 mmHg 56%
    02:00 +11°C° 0 mm 3 mps 767 mmHg 54%
    03:00 +11°C° 0 mm 3 mps 767 mmHg 54%
    04:00 +11°C° 0 mm 3 mps 767 mmHg 55%
    05:00 +10°C° 0 mm 3 mps 767 mmHg 56%
    06:00 +12°C° 0 mm 3 mps 767 mmHg 52%
    07:00 +13°C° 0 mm 3 mps 768 mmHg 49%
    08:00 +14°C° 0 mm 3 mps 768 mmHg 46%
    09:00 +17°C° 0 mm 3 mps 768 mmHg 42%
    10:00 +18°C° 0 mm 3 mps 768 mmHg 38%
    11:00 +19°C° 0 mm 4 mps 769 mmHg 34%
    12:00 +20°C° 0 mm 4 mps 768 mmHg 33%
    13:00 +20°C° 0 mm 4 mps 768 mmHg 32%
    14:00 +21°C° 0 mm 4 mps 768 mmHg 31%
    15:00 +20°C° 0 mm 4 mps 768 mmHg 34%
    16:00 +19°C° 0 mm 4 mps 768 mmHg 37%
    17:00 +18°C° 0 mm 4 mps 767 mmHg 41%
    18:00 +17°C° 0 mm 4 mps 768 mmHg 47%
    19:00 +14°C° 0 mm 3 mps 768 mmHg 53%
    20:00 +13°C° 0 mm 3 mps 768 mmHg 59%
    21:00 +13°C° 0 mm 2 mps 768 mmHg 60%
    22:00 +13°C° 0 mm 2 mps 768 mmHg 61%
    23:00 +13°C° 0 mm 2 mps 768 mmHg 62%

    Tomorrow, 22 September, Sunday

    Time Temperature Precipitation Wind Pressure Humidity
    00:00 +12°C° 0 mm 2 mps 768 mmHg 64%
    01:00 +12°C° 0 mm 2 mps 768 mmHg 65%
    02:00 +12°C° 0 mm 1 mps 768 mmHg 66%
    03:00 +12°C° 0 mm 1 mps 768 mmHg 67%
    04:00 +11°C° 0 mm 1 mps 767 mmHg 68%
    05:00 +11°C° 0 mm 1 mps 767 mmHg 68%
    06:00 +13°C° 0 mm 1 mps 767 mmHg 62%
    07:00 +14°C° 0 mm 1 mps 767 mmHg 56%
    08:00 +16°C° 0 mm 1 mps 767 mmHg 51%
    09:00 +19°C° 0 mm 1 mps 767 mmHg 45%
    10:00 +21°C° 0 mm 1 mps 767 mmHg 40%
    11:00 +22°C° 0 mm 1 mps 767 mmHg 35%
    12:00 +23°C° 0 mm 2 mps 766 mmHg 34%
    13:00 +24°C° 0 mm 3 mps 766 mmHg 33%
    14:00 +24°C° 0 mm 3 mps 765 mmHg 32%
    15:00 +22°C° 0 mm 4 mps 764 mmHg 37%
    16:00 +21°C° 0 mm 4 mps 764 mmHg 43%
    17:00 +20°C° 0 mm 5 mps 764 mmHg 48%
    18:00 +18°C° 0 mm 4 mps 764 mmHg 54%
    19:00 +17°C° 0 mm 3 mps 764 mmHg 61%
    20:00 +14°C° 0 mm 3 mps 764 mmHg 67%
    21:00 +14°C° 0 mm 2 mps 764 mmHg 69%
    22:00 +14°C° 0 mm 2 mps 764 mmHg 71%
    23:00 +14°C° 0 mm 1 mps 764 mmHg 73%

    Day after tomorrow, 23 September, Monday

    Time Temperature Precipitation Wind Pressure Humidity
    00:00 +13°C° 0 mm 1 mps 764 mmHg 74%
    01:00 +13°C° 0 mm 1 mps 763 mmHg 75%
    02:00 +13°C° 0 mm 1 mps 763 mmHg 75%
    03:00 +13°C° 0 mm 1 mps 763 mmHg 76%
    04:00 +13°C° 0 mm 1 mps 763 mmHg 76%
    05:00 +12°C° 0 mm 1 mps 763 mmHg 76%
    06:00 +14°C° 0 mm 1 mps 763 mmHg 70%
    07:00 +16°C° 0 mm 1 mps 763 mmHg 63%
    08:00 +18°C° 0 mm 1 mps 762 mmHg 56%
    09:00 +20°C° 0 mm 1 mps 762 mmHg 50%
    10:00 +22°C° 0 mm 1 mps 762 mmHg 43%
    11:00 +24°C° 0 mm 2 mps 762 mmHg 37%
    12:00 +25°C° 0 mm 2 mps 762 mmHg 37%
    13:00 +25°C° 0 mm 3 mps 761 mmHg 37%
    14:00 +26°C° 0 mm 4 mps 761 mmHg 38%
    15:00 +25°C° 0 mm 4 mps 761 mmHg 43%
    16:00 +23°C° 0 mm 5 mps 760 mmHg 49%
    17:00 +22°C° 0 mm 5 mps 760 mmHg 55%
    18:00 +20°C° 0 mm 4 mps 760 mmHg 61%
    19:00 +19°C° 0 mm 4 mps 760 mmHg 68%
    20:00 +17°C° 0 mm 3 mps 761 mmHg 74%
    21:00 +17°C° 0 mm 3 mps 760 mmHg 74%
    22:00 +17°C° 0 mm 2 mps 760 mmHg 74%
    23:00 +18°C° 0 mm 2 mps 760 mmHg 74%

    24 September, Tuesday

    Time Temperature Precipitation Wind Pressure Humidity
    00:00 +18°C° 0 mm 2 mps 760 mmHg 74%
    01:00 +18°C° 0 mm 2 mps 760 mmHg 74%
    02:00 +18°C° 0 mm 2 mps 760 mmHg 75%
    03:00 +19°C° 0 mm 1 mps 759 mmHg 76%
    04:00 +19°C° 0 mm 1 mps 759 mmHg 77%
    05:00 +19°C° 0 mm 1 mps 758 mmHg 78%
    06:00 +19°C° 0 mm 1 mps 758 mmHg 76%
    07:00 +20°C° 0 mm 1 mps 758 mmHg 75%
    08:00 +20°C° 0 mm 1 mps 758 mmHg 73%
    09:00 +21°C° 0 mm 2 mps 758 mmHg 68%
    10:00 +22°C° 0 mm 3 mps 758 mmHg 62%
    11:00 +24°C° 0 mm 3 mps 758 mmHg 57%
    12:00 +25°C° 0 mm 4 mps 757 mmHg 55%
    13:00 +25°C° 0 mm 4 mps 757 mmHg 54%
    14:00 +26°C° 0 mm 5 mps 756 mmHg 53%
    15:00 +25°C° 0 mm 5 mps 756 mmHg 58%
    16:00 +23°C° 0 mm 5 mps 756 mmHg 63%
    17:00 +22°C° 0 mm 5 mps 755 mmHg 68%
    18:00 +21°C° 0.1 mm 4 mps 756 mmHg 73%
    19:00 +20°C° 0.1 mm 4 mps 756 mmHg 78%
    20:00 +19°C° 0.1 mm 3 mps 756 mmHg 83%
    21:00 +19°C° 0.2 mm 3 mps 756 mmHg 85%
    22:00 +19°C° 0.2 mm 3 mps 756 mmHg 87%
    23:00 +19°C° 0.2 mm 2 mps 756 mmHg 89%

    25 September, Wednesday

    Time Temperature Precipitation Wind Pressure Humidity
    00:00 +19°C° 0.3 mm 2 mps 756 mmHg 90%
    01:00 +18°C° 0.3 mm 2 mps 756 mmHg 91%
    02:00 +18°C° 0.3 mm 2 mps 756 mmHg 92%
    03:00 +18°C° 0.1 mm 2 mps 756 mmHg 92%
    04:00 +18°C° 0.1 mm 2 mps 756 mmHg 92%
    05:00 +18°C° 0.1 mm 2 mps 756 mmHg 92%
    06:00 +18°C° 0.1 mm 2 mps 756 mmHg 91%
    07:00 +19°C° 0.1 mm 1 mps 756 mmHg 90%
    08:00 +19°C° 0.1 mm 1 mps 756 mmHg 89%
    09:00 +20°C° 0.2 mm 1 mps 757 mmHg 86%
    10:00 +20°C° 0.2 mm 1 mps 757 mmHg 83%
    11:00 +20°C° 0.2 mm 2 mps 757 mmHg 80%
    12:00 +20°C° 0 mm 2 mps 757 mmHg 76%
    13:00 +21°C° 0 mm 2 mps 757 mmHg 72%
    14:00 +22°C° 0 mm 3 mps 757 mmHg 68%
    15:00 +22°C° 0 mm 3 mps 757 mmHg 68%
    16:00 +21°C° 0 mm 3 mps 757 mmHg 69%
    17:00 +21°C° 0 mm 3 mps 757 mmHg 70%
    18:00 +20°C° 0 mm 2 mps 757 mmHg 76%
    19:00 +18°C° 0 mm 2 mps 757 mmHg 82%
    20:00 +18°C° 0 mm 1 mps 758 mmHg 88%
    21:00 +18°C° 0 mm 1 mps 758 mmHg 89%
    22:00 +18°C° 0 mm 1 mps 758 mmHg 89%
    23:00 +16°C° 0 mm 1 mps 758 mmHg 90%

    26 September, Thursday

    Time Temperature Precipitation Wind Pressure Humidity
    00:00 +16°C° 0 mm 1 mps 758 mmHg 90%
    01:00 +16°C° 0 mm 1 mps 758 mmHg 90%
    02:00 +16°C° 0 mm 1 mps 758 mmHg 90%
    03:00 +16°C° 0 mm 1 mps 758 mmHg 90%
    04:00 +16°C° 0 mm 1 mps 758 mmHg 90%
    05:00 +16°C° 0 mm 1 mps 758 mmHg 90%
    06:00 +18°C° 0 mm 1 mps 758 mmHg 85%
    07:00 +19°C° 0 mm 1 mps 758 mmHg 80%
    08:00 +20°C° 0 mm 1 mps 758 mmHg 75%
    09:00 +22°C° 0 mm 1 mps 759 mmHg 68%
    10:00 +24°C° 0 mm 1 mps 759 mmHg 61%
    11:00 +26°C° 0 mm 1 mps 759 mmHg 54%
    12:00 +26°C° 0.4 mm 1 mps 759 mmHg 53%
    13:00 +27°C° 0.4 mm 2 mps 759 mmHg 52%
    14:00 +27°C° 0.4 mm 2 mps 758 mmHg 51%
    15:00 +26°C° 0.3 mm 2 mps 758 mmHg 56%
    16:00 +26°C° 0.3 mm 2 mps 758 mmHg 60%
    17:00 +25°C° 0.3 mm 3 mps 758 mmHg 65%
    18:00 +23°C° 0.1 mm 2 mps 758 mmHg 72%
    19:00 +21°C° 0.1 mm 2 mps 759 mmHg 78%
    20:00 +20°C° 0.1 mm 2 mps 759 mmHg 84%
    21:00 +19°C° 0 mm 2 mps 759 mmHg 85%
    22:00 +20°C° 0 mm 1 mps 759 mmHg 86%
    23:00 +20°C° 0 mm 1 mps 759 mmHg 86%
    Show more